Time,TemperatureF,DewpointF,PressureIn,WindDirection,WindDirectionDegrees,WindSpeedMPH,WindSpeedGustMPH,Humidity,HourlyPrecipIn,Conditions,Clouds,dailyrainin,SoftwareType,DateUTC
2013-08-03 00:04:00,66.4,66.1,29.96,NE,48,0.0,0.0,99,0.00,,SKC,0.00,VWS V12.07,2013-08-03 05:04:00,
2013-08-03 00:10:00,66.5,66.2,29.97,NE,47,0.0,0.0,99,0.00,,SKC,0.00,VWS V12.07,2013-08-03 05:10:00,
2013-08-03 00:17:00,66.5,66.2,29.97,NE,47,0.0,0.0,99,0.00,,SKC,0.00,VWS V12.07,2013-08-03 05:17:00,
2013-08-03 00:24:00,66.4,66.1,29.97,NE,47,0.0,0.0,99,0.00,,SKC,0.00,VWS V12.07,2013-08-03 05:24:00,
2013-08-03 00:30:00,66.2,65.9,29.98,NE,47,0.0,0.0,99,0.00,,SKC,0.00,VWS V12.07,2013-08-03 05:30:00,
2013-08-03 00:37:00,65.9,65.6,29.98,NE,47,0.0,0.0,99,0.00,,SKC,0.00,VWS V12.07,2013-08-03 05:37:00,
2013-08-03 00:44:00,66.0,65.7,29.98,NE,47,0.0,0.0,99,0.00,,SKC,0.00,VWS V12.07,2013-08-03 05:44:00,
2013-08-03 00:50:00,65.9,65.6,29.99,NE,47,0.0,1.0,99,0.00,,SKC,0.00,VWS V12.07,2013-08-03 05:50:00,
2013-08-03 00:57:00,65.7,65.4,29.99,NE,47,0.0,1.0,99,0.00,,SKC,0.00,VWS V12.07,2013-08-03 05:57:00,
2013-08-03 01:04:00,66.2,65.9,29.99,ENE,61,0.0,1.0,99,0.00,,SKC,0.00,VWS V12.07,2013-08-03 06:04:00,
2013-08-03 01:10:00,66.2,65.9,29.99,NE,39,0.0,1.0,99,0.01,,SKC,0.01,VWS V12.07,2013-08-03 06:10:00,
2013-08-03 01:17:00,66.3,66.0,29.99,NE,39,0.0,1.0,99,0.01,,SKC,0.01,VWS V12.07,2013-08-03 06:17:00,
2013-08-03 01:24:00,66.4,66.1,30.00,NE,38,0.0,1.0,99,0.01,,SKC,0.01,VWS V12.07,2013-08-03 06:24:00,
2013-08-03 01:30:00,66.4,66.1,29.99,NE,36,0.0,1.0,99,0.01,,SKC,0.01,VWS V12.07,2013-08-03 06:30:00,
2013-08-03 01:37:00,66.7,66.4,29.99,NE,52,1.0,2.0,99,0.01,,SKC,0.01,VWS V12.07,2013-08-03 06:37:00,
2013-08-03 01:44:00,66.7,66.4,29.99,NE,53,1.0,2.0,99,0.01,,SKC,0.01,VWS V12.07,2013-08-03 06:44:00,
2013-08-03 01:50:00,66.9,66.6,29.99,NNW,345,0.0,3.0,99,0.01,,SKC,0.01,VWS V12.07,2013-08-03 06:50:00,
2013-08-03 01:57:00,67.0,66.7,29.99,ENE,58,2.0,3.0,99,0.01,,SKC,0.01,VWS V12.07,2013-08-03 06:57:00,
2013-08-03 02:04:00,67.1,66.8,29.98,NE,56,1.0,2.0,99,0.01,,SKC,0.01,VWS V12.07,2013-08-03 07:04:00,
2013-08-03 02:09:00,67.1,66.8,29.98,North,349,1.0,2.0,99,0.01,,SKC,0.01,VWS V12.07,2013-08-03 07:09:00,
2013-08-03 02:17:00,67.2,66.9,29.97,North,355,0.0,2.0,99,0.01,,SKC,0.01,VWS V12.07,2013-08-03 07:17:00,
2013-08-03 02:23:00,67.2,66.9,29.97,NE,56,0.0,2.0,99,0.01,,SKC,0.01,VWS V12.07,2013-08-03 07:23:00,
2013-08-03 02:28:00,67.2,66.9,29.97,North,357,1.0,2.0,99,0.01,,SKC,0.01,VWS V12.07,2013-08-03 07:28:00,
2013-08-03 02:35:00,67.3,67.0,29.97,NE,43,0.0,2.0,99,0.00,,SKC,0.01,VWS V12.07,2013-08-03 07:35:00,
2013-08-03 02:40:00,67.5,67.2,29.97,NNW,330,1.0,3.0,99,0.00,,SKC,0.01,VWS V12.07,2013-08-03 07:40:00,
2013-08-03 02:45:00,67.7,67.7,29.97,North,8,2.0,6.0,100,0.00,,SKC,0.01,VWS V12.07,2013-08-03 07:45:00,
2013-08-03 02:50:00,67.8,67.8,29.97,NNE,13,2.0,6.0,100,0.00,,SKC,0.01,VWS V12.07,2013-08-03 07:50:00,
2013-08-03 02:57:00,67.9,67.9,29.97,NNE,23,1.0,6.0,100,0.00,,SKC,0.01,VWS V12.07,2013-08-03 07:57:00,
2013-08-03 03:02:00,68.0,68.0,29.96,NNE,22,4.0,7.0,100,0.00,,SKC,0.01,VWS V12.07,2013-08-03 08:02:00,
2013-08-03 03:08:00,68.0,68.0,29.96,ESE,106,0.0,7.0,100,0.00,,SKC,0.01,VWS V12.07,2013-08-03 08:08:00,
2013-08-03 03:14:00,68.1,68.1,29.96,NNE,15,4.0,7.0,100,0.00,,SKC,0.01,VWS V12.07,2013-08-03 08:14:00,
2013-08-03 03:19:00,68.1,68.1,29.96,WNW,283,1.0,7.0,100,0.00,,SKC,0.01,VWS V12.07,2013-08-03 08:19:00,
2013-08-03 03:25:00,68.2,68.2,29.96,NNW,333,1.0,7.0,100,0.00,,SKC,0.01,VWS V12.07,2013-08-03 08:25:00,
2013-08-03 03:30:00,68.2,68.2,29.96,NNE,32,4.0,7.0,100,0.00,,SKC,0.01,VWS V12.07,2013-08-03 08:30:00,
2013-08-03 03:35:00,68.2,68.2,29.96,North,5,1.0,4.0,100,0.00,,SKC,0.01,VWS V12.07,2013-08-03 08:35:00,
2013-08-03 03:40:00,68.2,67.9,29.96,NNE,33,3.0,6.0,99,0.00,,SKC,0.01,VWS V12.07,2013-08-03 08:40:00,
2013-08-03 03:45:00,68.3,68.0,29.96,NE,48,3.0,6.0,99,0.00,,SKC,0.01,VWS V12.07,2013-08-03 08:45:00,
2013-08-03 03:51:00,68.3,68.0,29.95,NNE,13,1.0,7.0,99,0.00,,SKC,0.01,VWS V12.07,2013-08-03 08:51:00,
2013-08-03 03:58:00,68.3,68.0,29.95,NE,36,3.0,7.0,99,0.00,,SKC,0.01,VWS V12.07,2013-08-03 08:58:00,
2013-08-03 04:04:00,68.3,68.0,29.96,ENE,67,3.0,5.0,99,0.00,,SKC,0.01,VWS V12.07,2013-08-03 09:04:00,
2013-08-03 04:09:00,68.3,68.0,29.96,ENE,61,0.0,5.0,99,0.00,,SKC,0.01,VWS V12.07,2013-08-03 09:09:00,
2013-08-03 04:14:00,68.3,68.0,29.96,NNE,21,1.0,5.0,99,0.00,,SKC,0.01,VWS V12.07,2013-08-03 09:14:00,
2013-08-03 04:20:00,68.3,68.0,29.96,NNE,22,0.0,5.0,99,0.00,,SKC,0.01,VWS V12.07,2013-08-03 09:20:00,
2013-08-03 04:25:00,68.3,68.0,29.96,ENE,58,0.0,5.0,99,0.00,,SKC,0.01,VWS V12.07,2013-08-03 09:25:00,
2013-08-03 04:30:00,68.3,68.0,29.96,NE,54,1.0,5.0,99,0.00,,SKC,0.01,VWS V12.07,2013-08-03 09:30:00,
2013-08-03 04:36:00,68.2,67.9,29.96,NE,56,0.0,1.0,99,0.00,,SKC,0.01,VWS V12.07,2013-08-03 09:36:00,
2013-08-03 04:41:00,68.2,67.9,29.97,NNE,17,0.0,1.0,99,0.00,,SKC,0.01,VWS V12.07,2013-08-03 09:41:00,
2013-08-03 04:46:00,68.2,67.9,29.97,NNE,17,0.0,1.0,99,0.00,,SKC,0.01,VWS V12.07,2013-08-03 09:46:00,
2013-08-03 04:53:00,68.3,68.3,29.97,NNE,18,0.0,1.0,100,0.00,,SKC,0.01,VWS V12.07,2013-08-03 09:53:00,
2013-08-03 04:58:00,68.3,68.3,29.97,NNE,18,0.0,1.0,100,0.00,,SKC,0.01,VWS V12.07,2013-08-03 09:58:00,
2013-08-03 05:04:00,68.3,68.3,29.97,NNE,18,0.0,0.0,100,0.00,,SKC,0.01,VWS V12.07,2013-08-03 10:04:00,
2013-08-03 05:09:00,68.3,68.3,29.98,NNE,18,0.0,0.0,100,0.00,,SKC,0.01,VWS V12.07,2013-08-03 10:09:00,
2013-08-03 05:16:00,68.4,68.4,29.98,North,349,0.0,2.0,100,0.00,,SKC,0.01,VWS V12.07,2013-08-03 10:16:00,
2013-08-03 05:21:00,68.4,68.4,29.99,NE,56,0.0,2.0,100,0.00,,SKC,0.01,VWS V12.07,2013-08-03 10:21:00,
2013-08-03 05:28:00,68.3,68.3,29.99,NE,56,0.0,2.0,100,0.00,,SKC,0.01,VWS V12.07,2013-08-03 10:28:00,
2013-08-03 05:35:00,68.1,68.1,29.99,NE,56,0.0,0.0,100,0.00,,SKC,0.01,VWS V12.07,2013-08-03 10:35:00,
2013-08-03 05:40:00,68.1,68.1,29.99,ESE,102,0.0,0.0,100,0.00,,SKC,0.01,VWS V12.07,2013-08-03 10:40:00,
2013-08-03 05:45:00,68.0,68.0,29.99,ESE,102,0.0,0.0,100,0.00,,SKC,0.01,VWS V12.07,2013-08-03 10:45:00,
2013-08-03 05:51:00,67.8,67.5,30.00,ESE,102,0.0,0.0,99,0.00,,SKC,0.01,VWS V12.07,2013-08-03 10:51:00,
2013-08-03 05:58:00,67.5,67.2,30.00,ESE,102,0.0,0.0,99,0.00,,SKC,0.01,VWS V12.07,2013-08-03 10:58:00,
2013-08-03 06:03:00,67.4,67.1,30.00,ESE,102,0.0,0.0,99,0.00,,SKC,0.01,VWS V12.07,2013-08-03 11:03:00,
2013-08-03 06:10:00,67.5,67.5,30.00,East,101,0.0,0.0,100,0.00,,SKC,0.01,VWS V12.07,2013-08-03 11:10:00,
2013-08-03 06:15:00,67.4,67.4,30.00,ESE,102,0.0,0.0,100,0.00,,SKC,0.01,VWS V12.07,2013-08-03 11:15:00,
2013-08-03 06:20:00,67.3,67.3,30.00,ESE,102,0.0,0.0,100,0.00,,SKC,0.01,VWS V12.07,2013-08-03 11:20:00,
2013-08-03 06:25:00,67.2,66.9,30.00,ESE,102,0.0,0.0,99,0.00,,SKC,0.01,VWS V12.07,2013-08-03 11:25:00,
2013-08-03 06:30:00,67.0,66.7,30.01,ESE,102,0.0,0.0,99,0.00,,SKC,0.01,VWS V12.07,2013-08-03 11:30:00,
2013-08-03 06:36:00,67.0,67.0,30.02,ESE,102,0.0,0.0,100,0.00,,SKC,0.01,VWS V12.07,2013-08-03 11:36:00,
2013-08-03 06:43:00,66.9,66.9,30.02,East,101,0.0,0.0,100,0.00,,SKC,0.01,VWS V12.07,2013-08-03 11:43:00,
2013-08-03 06:48:00,67.0,67.0,30.02,ESE,102,0.0,0.0,100,0.00,,SKC,0.01,VWS V12.07,2013-08-03 11:48:00,
2013-08-03 06:55:00,67.1,67.1,30.01,ENE,72,0.0,0.0,100,0.00,,SKC,0.01,VWS V12.07,2013-08-03 11:55:00,
2013-08-03 07:00:00,67.1,67.1,30.02,ENE,60,1.0,2.0,100,0.00,,SKC,0.01,VWS V12.07,2013-08-03 12:00:00,
2013-08-03 07:06:00,67.4,67.4,30.02,ENE,75,0.0,6.0,100,0.00,,SKC,0.01,VWS V12.07,2013-08-03 12:06:00,
2013-08-03 07:13:00,67.6,67.6,30.02,East,84,1.0,6.0,100,0.00,,SKC,0.01,VWS V12.07,2013-08-03 12:13:00,
2013-08-03 07:18:00,67.8,67.8,30.02,ENE,71,1.0,6.0,100,0.00,,SKC,0.01,VWS V12.07,2013-08-03 12:18:00,
2013-08-03 07:23:00,67.9,67.9,30.03,NE,49,2.0,6.0,100,0.00,,SKC,0.01,VWS V12.07,2013-08-03 12:23:00,
2013-08-03 07:30:00,68.1,68.1,30.03,NNE,19,0.0,6.0,100,0.00,,SKC,0.01,VWS V12.07,2013-08-03 12:30:00,
2013-08-03 07:38:00,68.2,68.2,30.03,NNE,16,0.0,5.0,100,0.00,,SKC,0.01,VWS V12.07,2013-08-03 12:38:00,
2013-08-03 07:44:00,68.3,68.3,30.03,NE,37,1.0,5.0,100,0.00,,SKC,0.01,VWS V12.07,2013-08-03 12:44:00,
2013-08-03 07:49:00,68.4,68.4,30.04,NE,51,0.0,5.0,100,0.00,,SKC,0.01,VWS V12.07,2013-08-03 12:49:00,
2013-08-03 07:54:00,68.4,68.4,30.03,ENE,74,0.0,5.0,100,0.00,,SKC,0.01,VWS V12.07,2013-08-03 12:54:00,
2013-08-03 08:00:00,68.4,68.4,30.04,East,82,0.0,5.0,100,0.00,,SKC,0.01,VWS V12.07,2013-08-03 13:00:00,
2013-08-03 08:06:00,68.6,68.6,30.03,ENE,72,2.0,4.0,100,0.00,,SKC,0.01,VWS V12.07,2013-08-03 13:06:00,
2013-08-03 08:13:00,68.5,68.2,30.04,NNW,338,1.0,5.0,99,0.00,,SKC,0.01,VWS V12.07,2013-08-03 13:13:00,
2013-08-03 08:20:00,68.3,67.7,30.04,ESE,115,0.0,7.0,98,0.00,,SKC,0.01,VWS V12.07,2013-08-03 13:20:00,
2013-08-03 08:28:00,68.2,67.6,30.04,NNE,22,1.0,7.0,98,0.00,,SKC,0.01,VWS V12.07,2013-08-03 13:28:00,
2013-08-03 08:33:00,68.3,67.4,30.04,NNE,30,2.0,3.0,97,0.00,,SKC,0.01,VWS V12.07,2013-08-03 13:33:00,
2013-08-03 08:38:00,68.6,67.7,30.04,NNE,33,0.0,5.0,97,0.00,,SKC,0.01,VWS V12.07,2013-08-03 13:38:00,
2013-08-03 08:43:00,68.9,67.7,30.04,NNE,13,1.0,5.0,96,0.00,,SKC,0.01,VWS V12.07,2013-08-03 13:43:00,
2013-08-03 08:50:00,69.2,67.4,30.04,North,349,0.0,6.0,94,0.00,,SKC,0.01,VWS V12.07,2013-08-03 13:50:00,
2013-08-03 08:55:00,69.3,66.9,30.04,NNE,28,3.0,6.0,92,0.00,,SKC,0.01,VWS V12.07,2013-08-03 13:55:00,
2013-08-03 09:00:00,69.4,66.3,30.04,NNE,18,0.0,6.0,90,0.00,,SKC,0.01,VWS V12.07,2013-08-03 14:00:00,
2013-08-03 09:08:00,69.9,66.5,30.04,NNE,20,2.0,6.0,89,0.00,,SKC,0.01,VWS V12.07,2013-08-03 14:08:00,
2013-08-03 09:15:00,70.5,66.1,30.04,NE,56,2.0,6.0,86,0.00,,SKC,0.01,VWS V12.07,2013-08-03 14:15:00,
2013-08-03 09:21:00,71.2,67.5,30.04,East,82,3.0,6.0,88,0.00,,SKC,0.01,VWS V12.07,2013-08-03 14:21:00,
2013-08-03 09:26:00,72.2,67.4,30.04,ESE,110,1.0,6.0,85,0.00,,SKC,0.01,VWS V12.07,2013-08-03 14:26:00,
2013-08-03 09:34:00,72.7,66.5,30.04,ENE,60,4.0,6.0,81,0.00,,SKC,0.01,VWS V12.07,2013-08-03 14:34:00,
2013-08-03 09:40:00,72.9,66.4,30.04,NE,51,3.0,6.0,80,0.00,,SKC,0.01,VWS V12.07,2013-08-03 14:40:00,
2013-08-03 09:47:00,73.2,66.7,30.05,NNE,16,0.0,6.0,80,0.00,,SKC,0.01,VWS V12.07,2013-08-03 14:47:00,
2013-08-03 09:54:00,73.5,66.2,30.05,ENE,74,5.0,6.0,78,0.00,,SKC,0.01,VWS V12.07,2013-08-03 14:54:00,
2013-08-03 09:59:00,74.0,67.4,30.05,ESE,112,3.0,6.0,80,0.00,,SKC,0.01,VWS V12.07,2013-08-03 14:59:00,
2013-08-03 10:07:00,74.9,66.8,30.05,NE,51,0.0,5.0,76,0.00,,SKC,0.01,VWS V12.07,2013-08-03 15:07:00,
2013-08-03 10:14:00,75.4,66.5,30.06,SSE,152,0.0,5.0,74,0.00,,SKC,0.01,VWS V12.07,2013-08-03 15:14:00,
2013-08-03 10:20:00,76.0,67.5,30.06,ENE,74,1.0,5.0,75,0.00,,SKC,0.01,VWS V12.07,2013-08-03 15:20:00,
2013-08-03 10:27:00,76.1,66.8,30.06,North,1,0.0,5.0,73,0.00,,SKC,0.01,VWS V12.07,2013-08-03 15:27:00,
2013-08-03 10:34:00,76.4,65.9,30.06,ESE,102,2.0,3.0,70,0.00,,SKC,0.01,VWS V12.07,2013-08-03 15:34:00,
2013-08-03 10:40:00,76.6,66.5,30.07,SE,141,1.0,3.0,71,0.00,,SKC,0.01,VWS V12.07,2013-08-03 15:40:00,
2013-08-03 10:47:00,77.1,67.0,30.07,ESE,115,0.0,4.0,71,0.00,,SKC,0.01,VWS V12.07,2013-08-03 15:47:00,
2013-08-03 10:54:00,77.3,65.9,30.07,NNE,16,4.0,4.0,68,0.00,,SKC,0.01,VWS V12.07,2013-08-03 15:54:00,
2013-08-03 11:00:00,77.2,66.2,30.07,SE,138,3.0,5.0,69,0.00,,SKC,0.01,VWS V12.07,2013-08-03 16:00:00,
2013-08-03 11:07:00,77.7,67.1,30.07,SE,146,0.0,5.0,70,0.00,,SKC,0.01,VWS V12.07,2013-08-03 16:07:00,
2013-08-03 11:14:00,78.1,66.7,30.07,East,99,0.0,5.0,68,0.00,,SKC,0.01,VWS V12.07,2013-08-03 16:14:00,
2013-08-03 11:20:00,78.5,65.8,30.08,SE,130,1.0,6.0,65,0.00,,SKC,0.01,VWS V12.07,2013-08-03 16:20:00,
2013-08-03 11:27:00,78.9,67.4,30.08,East,81,0.0,6.0,68,0.00,,SKC,0.01,VWS V12.07,2013-08-03 16:27:00,
2013-08-03 11:34:00,78.1,67.1,30.08,West,263,0.0,1.0,69,0.00,,SKC,0.01,VWS V12.07,2013-08-03 16:34:00,
2013-08-03 11:40:00,78.5,67.9,30.08,SE,133,0.0,1.0,70,0.00,,SKC,0.01,VWS V12.07,2013-08-03 16:40:00,
2013-08-03 11:46:00,78.8,68.2,30.08,WSW,248,1.0,4.0,70,0.00,,SKC,0.01,VWS V12.07,2013-08-03 16:46:00,
2013-08-03 11:54:00,79.4,68.3,30.07,WSW,251,2.0,4.0,69,0.00,,SKC,0.01,VWS V12.07,2013-08-03 16:54:00,
2013-08-03 12:00:00,79.9,68.8,30.08,SE,128,1.0,4.0,69,0.00,,SKC,0.01,VWS V12.07,2013-08-03 17:00:00,
2013-08-03 12:06:00,81.0,67.7,30.08,SE,127,0.0,3.0,64,0.00,,SKC,0.01,VWS V12.07,2013-08-03 17:06:00,
2013-08-03 12:14:00,80.7,66.5,30.07,NE,40,1.0,4.0,62,0.00,,SKC,0.01,VWS V12.07,2013-08-03 17:14:00,
2013-08-03 12:20:00,80.2,66.5,30.08,NW,323,0.0,6.0,63,0.00,,SKC,0.01,VWS V12.07,2013-08-03 17:20:00,
2013-08-03 12:27:00,80.1,66.4,30.07,NW,308,2.0,6.0,63,0.00,,SKC,0.01,VWS V12.07,2013-08-03 17:27:00,
2013-08-03 12:34:00,79.8,67.0,30.07,NNE,18,1.0,3.0,65,0.00,,SKC,0.01,VWS V12.07,2013-08-03 17:34:00,
2013-08-03 12:40:00,80.0,66.3,30.07,WNW,299,2.0,3.0,63,0.00,,SKC,0.01,VWS V12.07,2013-08-03 17:40:00,
2013-08-03 12:47:00,80.2,66.9,30.07,SW,222,0.0,4.0,64,0.00,,SKC,0.01,VWS V12.07,2013-08-03 17:47:00,
2013-08-03 12:54:00,80.7,66.0,30.07,ENE,77,4.0,4.0,61,0.00,,SKC,0.01,VWS V12.07,2013-08-03 17:54:00,
2013-08-03 12:59:00,80.5,67.2,30.07,SE,132,0.0,5.0,64,0.00,,SKC,0.01,VWS V12.07,2013-08-03 17:59:00,
2013-08-03 13:07:00,81.2,67.9,30.07,WNW,297,3.0,6.0,64,0.00,,SKC,0.01,VWS V12.07,2013-08-03 18:07:00,
2013-08-03 13:14:00,81.3,68.0,30.07,North,8,2.0,9.0,64,0.00,,SKC,0.01,VWS V12.07,2013-08-03 18:14:00,
2013-08-03 13:19:00,81.8,67.5,30.07,East,81,4.0,9.0,62,0.00,,SKC,0.01,VWS V12.07,2013-08-03 18:19:00,
2013-08-03 13:27:00,81.4,67.1,30.07,ENE,61,2.0,9.0,62,0.00,,SKC,0.01,VWS V12.07,2013-08-03 18:27:00,
2013-08-03 13:34:00,81.3,66.1,30.07,East,98,2.0,4.0,60,0.00,,SKC,0.01,VWS V12.07,2013-08-03 18:34:00,
2013-08-03 13:40:00,81.3,67.1,30.07,NNE,16,2.0,7.0,62,0.00,,SKC,0.01,VWS V12.07,2013-08-03 18:40:00,
2013-08-03 13:46:00,81.2,68.3,30.07,ENE,66,2.0,7.0,65,0.00,,SKC,0.01,VWS V12.07,2013-08-03 18:46:00,
2013-08-03 13:54:00,81.4,68.1,30.07,NNW,345,3.0,7.0,64,0.00,,SKC,0.01,VWS V12.07,2013-08-03 18:54:00,
2013-08-03 14:00:00,81.1,67.3,30.07,NE,41,4.0,9.0,63,0.00,,SKC,0.01,VWS V12.07,2013-08-03 19:00:00,
2013-08-03 14:07:00,80.6,67.3,30.08,East,98,3.0,5.0,64,0.00,,SKC,0.01,VWS V12.07,2013-08-03 19:07:00,
2013-08-03 14:14:00,81.4,68.5,30.07,NW,304,4.0,6.0,65,0.00,,SKC,0.01,VWS V12.07,2013-08-03 19:14:00,
2013-08-03 14:20:00,80.9,67.6,30.07,NW,317,5.0,8.0,64,0.00,,SKC,0.01,VWS V12.07,2013-08-03 19:20:00,
2013-08-03 14:27:00,80.8,68.4,30.07,NE,39,4.0,8.0,66,0.00,,SKC,0.01,VWS V12.07,2013-08-03 19:27:00,
2013-08-03 14:34:00,80.9,68.0,30.07,NNE,32,0.0,8.0,65,0.00,,SKC,0.01,VWS V12.07,2013-08-03 19:34:00,
2013-08-03 14:39:00,81.3,68.0,30.07,WNW,302,1.0,8.0,64,0.00,,SKC,0.01,VWS V12.07,2013-08-03 19:39:00,
2013-08-03 14:47:00,81.3,67.1,30.07,ENE,71,2.0,8.0,62,0.00,,SKC,0.01,VWS V12.07,2013-08-03 19:47:00,
2013-08-03 14:54:00,81.6,66.9,30.07,North,358,4.0,8.0,61,0.00,,SKC,0.01,VWS V12.07,2013-08-03 19:54:00,
2013-08-03 15:00:00,81.7,66.0,30.07,NNE,19,4.0,8.0,59,0.00,,SKC,0.01,VWS V12.07,2013-08-03 20:00:00,
2013-08-03 15:07:00,81.8,66.1,30.06,North,360,2.0,5.0,59,0.00,,SKC,0.01,VWS V12.07,2013-08-03 20:07:00,
2013-08-03 15:14:00,82.0,65.8,30.06,ENE,75,3.0,6.0,58,0.00,,SKC,0.01,VWS V12.07,2013-08-03 20:14:00,
2013-08-03 15:20:00,82.1,65.4,30.06,ESE,120,7.0,7.0,57,0.00,,SKC,0.01,VWS V12.07,2013-08-03 20:20:00,
2013-08-03 15:27:00,82.1,64.9,30.06,ESE,107,1.0,9.0,56,0.00,,SKC,0.01,VWS V12.07,2013-08-03 20:27:00,
2013-08-03 15:34:00,82.1,64.3,30.06,NNW,327,2.0,8.0,55,0.00,,SKC,0.01,VWS V12.07,2013-08-03 20:34:00,
2013-08-03 15:40:00,82.2,66.5,30.06,SSW,197,1.0,8.0,59,0.00,,SKC,0.01,VWS V12.07,2013-08-03 20:40:00,
2013-08-03 15:47:00,82.5,64.7,30.06,NE,53,2.0,8.0,55,0.00,,SKC,0.01,VWS V12.07,2013-08-03 20:47:00,
2013-08-03 15:54:00,82.5,65.8,30.06,NNE,30,1.0,8.0,57,0.00,,SKC,0.01,VWS V12.07,2013-08-03 20:54:00,
2013-08-03 16:00:00,82.3,64.5,30.07,North,353,1.0,11.0,55,0.00,,SKC,0.01,VWS V12.07,2013-08-03 21:00:00,
2013-08-03 16:07:00,81.8,63.5,30.06,NNE,26,5.0,10.0,54,0.00,,SKC,0.01,VWS V12.07,2013-08-03 21:07:00,
2013-08-03 16:14:00,82.0,64.3,30.07,ENE,58,7.0,11.0,55,0.00,,SKC,0.01,VWS V12.07,2013-08-03 21:14:00,
2013-08-03 16:20:00,81.8,62.5,30.07,ENE,58,2.0,11.0,52,0.00,,SKC,0.01,VWS V12.07,2013-08-03 21:20:00,
2013-08-03 16:27:00,81.9,63.1,30.07,NE,36,4.0,11.0,53,0.00,,SKC,0.01,VWS V12.07,2013-08-03 21:27:00,
2013-08-03 16:34:00,81.8,63.0,30.07,NW,321,2.0,7.0,53,0.00,,SKC,0.01,VWS V12.07,2013-08-03 21:34:00,
2013-08-03 16:40:00,81.9,64.2,30.07,WNW,294,1.0,7.0,55,0.00,,SKC,0.01,VWS V12.07,2013-08-03 21:40:00,
2013-08-03 16:47:00,81.9,62.6,30.07,NNE,16,5.0,9.0,52,0.00,,SKC,0.01,VWS V12.07,2013-08-03 21:47:00,
2013-08-03 16:54:00,81.7,62.4,30.07,East,88,3.0,9.0,52,0.00,,SKC,0.01,VWS V12.07,2013-08-03 21:54:00,
2013-08-03 17:00:00,81.7,61.8,30.07,ENE,74,1.0,9.0,51,0.00,,SKC,0.01,VWS V12.07,2013-08-03 22:00:00,
2013-08-03 17:07:00,81.7,62.4,30.07,WNW,300,3.0,7.0,52,0.00,,SKC,0.01,VWS V12.07,2013-08-03 22:07:00,
2013-08-03 17:14:00,81.6,62.3,30.07,North,356,1.0,7.0,52,0.00,,SKC,0.01,VWS V12.07,2013-08-03 22:14:00,
2013-08-03 17:20:00,81.5,62.2,30.07,North,1,2.0,7.0,52,0.00,,SKC,0.01,VWS V12.07,2013-08-03 22:20:00,
2013-08-03 17:27:00,81.6,62.8,30.07,North,6,1.0,7.0,53,0.00,,SKC,0.01,VWS V12.07,2013-08-03 22:27:00,
2013-08-03 17:34:00,81.8,64.1,30.07,NW,323,1.0,2.0,55,0.00,,SKC,0.01,VWS V12.07,2013-08-03 22:34:00,
2013-08-03 17:40:00,81.8,63.5,30.07,ENE,61,2.0,6.0,54,0.00,,SKC,0.01,VWS V12.07,2013-08-03 22:40:00,
2013-08-03 17:47:00,81.7,62.9,30.07,NW,320,1.0,6.0,53,0.00,,SKC,0.01,VWS V12.07,2013-08-03 22:47:00,
2013-08-03 17:54:00,81.9,63.6,30.07,ENE,67,2.0,6.0,54,0.00,,SKC,0.01,VWS V12.07,2013-08-03 22:54:00,
2013-08-03 18:00:00,82.2,63.9,30.07,NE,55,0.0,6.0,54,0.00,,SKC,0.01,VWS V12.07,2013-08-03 23:00:00,
2013-08-03 18:07:00,81.8,63.5,30.06,NNW,333,1.0,5.0,54,0.00,,SKC,0.01,VWS V12.07,2013-08-03 23:07:00,
2013-08-03 18:14:00,81.5,63.3,30.06,NE,37,1.0,5.0,54,0.00,,SKC,0.01,VWS V12.07,2013-08-03 23:14:00,
2013-08-03 18:20:00,81.2,63.0,30.06,NE,34,5.0,6.0,54,0.00,,SKC,0.01,VWS V12.07,2013-08-03 23:20:00,
2013-08-03 18:27:00,80.8,63.7,30.07,NNE,20,2.0,6.0,56,0.00,,SKC,0.01,VWS V12.07,2013-08-03 23:27:00,
2013-08-03 18:34:00,80.5,62.3,30.07,North,8,2.0,4.0,54,0.00,,SKC,0.01,VWS V12.07,2013-08-03 23:34:00,
2013-08-03 18:40:00,80.5,62.9,30.06,ENE,63,1.0,5.0,55,0.00,,SKC,0.01,VWS V12.07,2013-08-03 23:40:00,
2013-08-03 18:47:00,80.2,62.6,30.06,ENE,65,0.0,5.0,55,0.00,,SKC,0.01,VWS V12.07,2013-08-03 23:47:00,
2013-08-03 18:54:00,80.1,62.5,30.06,NE,50,1.0,5.0,55,0.00,,SKC,0.01,VWS V12.07,2013-08-03 23:54:00,
2013-08-03 18:59:00,79.9,62.8,30.06,NE,47,2.0,5.0,56,0.00,,SKC,0.01,VWS V12.07,2013-08-03 23:59:00,
2013-08-03 19:07:00,79.8,62.7,30.06,NE,50,1.0,4.0,56,0.00,,SKC,0.01,VWS V12.07,2013-08-04 00:07:00,
2013-08-03 19:14:00,79.4,63.3,30.06,ENE,58,1.0,4.0,58,0.00,,SKC,0.01,VWS V12.07,2013-08-04 00:14:00,
2013-08-03 19:20:00,79.4,63.3,30.06,NE,34,0.0,4.0,58,0.00,,SKC,0.01,VWS V12.07,2013-08-04 00:20:00,
2013-08-03 19:27:00,79.3,64.2,30.07,NE,48,0.0,4.0,60,0.00,,SKC,0.01,VWS V12.07,2013-08-04 00:27:00,
2013-08-03 19:34:00,78.9,63.8,30.07,NNE,12,0.0,1.0,60,0.00,,SKC,0.01,VWS V12.07,2013-08-04 00:34:00,
2013-08-03 19:40:00,78.2,63.7,30.07,NE,53,1.0,2.0,61,0.00,,SKC,0.01,VWS V12.07,2013-08-04 00:40:00,
2013-08-03 19:47:00,77.4,63.4,30.08,ENE,58,0.0,2.0,62,0.00,,SKC,0.01,VWS V12.07,2013-08-04 00:47:00,
2013-08-03 19:54:00,76.7,63.2,30.08,ENE,63,1.0,2.0,63,0.00,,SKC,0.01,VWS V12.07,2013-08-04 00:54:00,
2013-08-03 20:00:00,75.9,63.3,30.08,ENE,68,0.0,2.0,65,0.00,,SKC,0.01,VWS V12.07,2013-08-04 01:00:00,
2013-08-03 20:07:00,75.0,62.9,30.08,ENE,68,0.0,1.0,66,0.00,,SKC,0.01,VWS V12.07,2013-08-04 01:07:00,
2013-08-03 20:14:00,74.3,62.6,30.08,East,89,0.0,1.0,67,0.00,,SKC,0.01,VWS V12.07,2013-08-04 01:14:00,
2013-08-03 20:20:00,73.9,61.8,30.08,East,89,0.0,1.0,66,0.00,,SKC,0.01,VWS V12.07,2013-08-04 01:20:00,
2013-08-03 20:27:00,73.7,62.1,30.08,ESE,116,0.0,1.0,67,0.00,,SKC,0.01,VWS V12.07,2013-08-04 01:27:00,
2013-08-03 20:34:00,73.2,62.0,30.08,ESE,116,0.0,0.0,68,0.00,,SKC,0.01,VWS V12.07,2013-08-04 01:34:00,
2013-08-03 20:40:00,72.4,62.5,30.09,ESE,116,0.0,0.0,71,0.00,,SKC,0.01,VWS V12.07,2013-08-04 01:40:00,
2013-08-03 20:47:00,71.8,61.9,30.09,NE,51,0.0,2.0,71,0.00,,SKC,0.01,VWS V12.07,2013-08-04 01:47:00,
2013-08-03 20:54:00,71.3,61.8,30.09,NE,44,0.0,2.0,72,0.00,,SKC,0.01,VWS V12.07,2013-08-04 01:54:00,
2013-08-03 21:00:00,71.1,61.2,30.09,ENE,63,0.0,2.0,71,0.00,,SKC,0.01,VWS V12.07,2013-08-04 02:00:00,
2013-08-03 21:07:00,71.1,60.8,30.09,NE,44,0.0,1.0,70,0.00,,SKC,0.01,VWS V12.07,2013-08-04 02:07:00,
2013-08-03 21:14:00,71.1,60.8,30.09,ENE,63,0.0,2.0,70,0.00,,SKC,0.01,VWS V12.07,2013-08-04 02:14:00,
2013-08-03 21:20:00,70.8,60.9,30.09,ENE,74,0.0,2.0,71,0.00,,SKC,0.01,VWS V12.07,2013-08-04 02:20:00,
2013-08-03 21:27:00,70.4,61.0,30.10,NE,56,0.0,2.0,72,0.00,,SKC,0.01,VWS V12.07,2013-08-04 02:27:00,
2013-08-03 21:34:00,69.8,60.8,30.10,ENE,57,0.0,0.0,73,0.00,,SKC,0.01,VWS V12.07,2013-08-04 02:34:00,
2013-08-03 21:40:00,69.5,60.5,30.11,ENE,58,0.0,0.0,73,0.00,,SKC,0.01,VWS V12.07,2013-08-04 02:40:00,
2013-08-03 21:47:00,69.1,60.8,30.11,ENE,58,0.0,0.0,75,0.00,,SKC,0.01,VWS V12.07,2013-08-04 02:47:00,
2013-08-03 21:54:00,68.8,60.6,30.11,NE,36,0.0,1.0,75,0.00,,SKC,0.01,VWS V12.07,2013-08-04 02:54:00,
2013-08-03 22:00:00,68.9,60.3,30.11,East,99,0.0,2.0,74,0.00,,SKC,0.01,VWS V12.07,2013-08-04 03:00:00,
2013-08-03 22:07:00,68.6,60.0,30.11,East,85,1.0,1.0,74,0.00,,SKC,0.01,VWS V12.07,2013-08-04 03:07:00,
2013-08-03 22:14:00,68.5,59.9,30.11,ENE,58,0.0,1.0,74,0.00,,SKC,0.01,VWS V12.07,2013-08-04 03:14:00,
2013-08-03 22:20:00,68.5,59.9,30.11,ENE,59,0.0,1.0,74,0.00,,SKC,0.01,VWS V12.07,2013-08-04 03:20:00,
2013-08-03 22:27:00,68.3,60.1,30.12,ENE,60,0.0,1.0,75,0.00,,SKC,0.01,VWS V12.07,2013-08-04 03:27:00,
2013-08-03 22:34:00,67.6,59.8,30.12,ENE,60,0.0,0.0,76,0.00,,SKC,0.01,VWS V12.07,2013-08-04 03:34:00,
2013-08-03 22:40:00,67.1,59.7,30.12,ENE,60,0.0,0.0,77,0.00,,SKC,0.01,VWS V12.07,2013-08-04 03:40:00,
2013-08-03 22:47:00,66.5,59.8,30.12,ENE,60,0.0,0.0,79,0.00,,SKC,0.01,VWS V12.07,2013-08-04 03:47:00,
2013-08-03 22:54:00,67.1,60.0,30.13,ENE,60,0.0,0.0,78,0.00,,SKC,0.01,VWS V12.07,2013-08-04 03:54:00,
2013-08-03 23:00:00,67.6,60.1,30.13,ENE,61,0.0,1.0,77,0.00,,SKC,0.01,VWS V12.07,2013-08-04 04:00:00,
2013-08-03 23:04:00,67.5,60.0,30.13,ENE,61,0.0,0.0,77,0.00,,SKC,0.01,VWS V12.07,2013-08-04 04:04:00,
2013-08-03 23:10:00,67.1,60.0,30.14,ENE,61,0.0,0.0,78,0.00,,SKC,0.01,VWS V12.07,2013-08-04 04:10:00,
2013-08-03 23:14:00,66.6,59.9,30.14,ENE,60,0.0,0.0,79,0.00,,SKC,0.01,VWS V12.07,2013-08-04 04:14:00,
2013-08-03 23:17:00,66.2,59.9,30.14,ENE,60,0.0,0.0,80,0.00,,SKC,0.01,VWS V12.07,2013-08-04 04:17:00,
2013-08-03 23:24:00,65.3,59.7,30.14,ENE,60,0.0,0.0,82,0.00,,SKC,0.01,VWS V12.07,2013-08-04 04:24:00,
2013-08-03 23:30:00,64.9,59.3,30.14,ENE,60,0.0,0.0,82,0.00,,SKC,0.01,VWS V12.07,2013-08-04 04:30:00,
2013-08-03 23:37:00,64.7,59.4,30.14,ENE,60,0.0,0.0,83,0.00,,SKC,0.01,VWS V12.07,2013-08-04 04:37:00,
2013-08-03 23:40:00,65.0,59.7,30.14,ENE,61,0.0,0.0,83,0.00,,SKC,0.01,VWS V12.07,2013-08-04 04:40:00,
2013-08-03 23:47:00,65.1,59.5,30.14,ENE,60,0.0,0.0,82,0.00,,SKC,0.01,VWS V12.07,2013-08-04 04:47:00,
2013-08-03 23:54:00,64.9,59.6,30.14,ENE,60,0.0,0.0,83,0.00,,SKC,0.01,VWS V12.07,2013-08-04 04:54:00,